Location: Carabito
(9.8355°N, 67.9249°W)
Time: 02:16:16
(UTC+00:00)

CZ-4B R/B - Pass Details

Date: 16 August 2024
Orbit: 807 x 881 km, 99.0° (Epoch: 08 September)

Event Time Altitude Azimuth Distance (km) Brightness Sun altitude
Exits shadow 23:47:49 17° 79° (ENE) 2,053 4.7 -14.9°
Maximum altitude 23:48:12 18° 74° (ENE) 2,047 4.7 -15.0°
Drops below altitude 10° 23:51:47 10° 34° (NE) 2,531 5.5 -15.8°
Sets 23:54:58 0° 15° (NNE) 3,465 6.4 -16.6°
